* Astronomy

Members Login
Username 
 
Password 
    Remember Me  
Post Info TOPIC: Asteroid 2011 EB12


L

Posts: 131433
Date:
Asteroid 2011 EB12
Permalink  
 


Orbital elements:
2011 EB12 Earth MOID = 0.2294 AU
Epoch 2011 Feb. 8.0 TT = JDT 2455600.5 MPC
M 143.30590 (2000.0) P Q
n 1.01370183 Peri. 0.50624 +0.97201583 +0.19544677
a 0.9814373 Node 345.98942 -0.21737843 +0.53800096
e 0.2446587 Incl. 32.56982 -0.08906094 +0.81997288
P 0.97 H 21.1 G 0.15 U 9

MPEC 2011 - E30


__________________
Page 1 of 1  sorted by
 
Quick Reply

Please log in to post quick replies.



Create your own FREE Forum
Report Abuse
Powered by ActiveBoard